Location: Allison's Woods
(35.8809°N, 80.8140°W)
Time: 17:08:46
(UTC-04:00)

Iridium 39 - Visible Passes

Search period start: 22 October 2017 00:00
Search period end: 01 November 2017 00:00
Orbit: 726 x 750 km, 86.4° (Epoch: 22 October)

Date Brightness Start Highest point End Pass type
(mag) Time Alt. Az. Time Alt. Az. Time Alt. Az.
24 Oct8.620:56:27N20:56:27N20:44:16Svisible
25 Oct8.320:10:36NNE20:10:36NNE20:01:07SSEvisible
25 Oct8.921:50:10NNW21:50:10NNW21:40:54SWvisible
26 Oct8.019:24:08NE19:24:08NE19:18:37ESEvisible
26 Oct 7.1 20:55:28 10° SSW 21:03:37 22° NNW 21:05:29 10° N visible
27 Oct 6.0 20:10:25 10° SSE 20:15:19 52° E 20:20:15 10° NNE visible
27 Oct 8.7 21:52:47 10° WSW 21:55:31 14° WNW 21:58:15 10° NW visible
28 Oct 7.1 19:26:43 10° SE 19:30:24 21° E 19:34:07 10° NE visible
28 Oct 7.4 21:05:21 10° SSW 21:10:00 36° W 21:14:40 10° NNW visible
29 Oct 5.8 20:19:40 10° S 20:24:44 87° E 20:29:51 10° N visible
30 Oct 8.8 06:48:53 10° NE 06:52:05 17° ENE 06:55:14 10° ESE visible
30 Oct 6.5 19:35:13 10° SSE 19:39:43 33° E 19:44:15 10° NNE visible
30 Oct 8.2 21:15:41 10° SW 21:19:37 22° W 21:23:34 10° NNW visible
31 Oct 7.6 18:52:37 10° ESE 18:54:56 13° E 18:57:15 10° NE visible
31 Oct 6.5 20:29:15 10° SSW 20:34:13 57° W 20:39:14 10° N visible
